GW0115 Weather Reports


time (UTC)temp
C
wind
direction
speed
KPH
gust
KPH
rain 1hr
cm
rain 24hr
cm
rain mn
cm
humidity
%
barometer
mb
20260831124605 17 0 0.0 0.0 0.00 0.00 0.00 93 1020.8
20260831123056 17 0 0.0 0.0 0.00 0.00 0.00 93 1020.9
20260831121602 16 0 0.0 0.0 0.00 0.00 0.00 94 1020.8
20260831120114 16 0 0.0 0.0 0.00 0.00 0.00 94 1020.7
20260831114558 15 0 0.0 0.0 0.00 0.00 0.00 94 1020.8
20260831113104 15 0 0.0 0.0 0.00 0.00 0.00 95 1020.7
20260831111555 14 0 0.0 0.0 0.00 0.00 0.00 95 1020.5
20260831104612 13 0 0.0 0.0 0.00 0.00 0.00 94 1020.0
20260831103056 13 0 0.0 0.0 0.00 0.00 0.00 94 1019.8
20260831101553 14 0 0.0 0.0 0.00 0.00 0.00 94 1019.8
20260831100122 14 0 0.0 0.0 0.00 0.00 0.00 94 1019.7
20260831094557 14 0 0.0 0.0 0.00 0.00 0.00 94 1019.6
20260831093103 14 0 0.0 0.0 0.00 0.00 0.00 94 1019.5
20260831091600 14 0 0.0 0.0 0.00 0.00 0.00 94 1019.6
20260831090057 14 0 0.0 0.0 0.00 0.00 0.00 94 1019.6
20260831084607 15 0 0.0 0.0 0.00 0.00 0.00 93 1019.5
20260831083104 15 0 0.0 0.0 0.00 0.00 0.00 93 1019.4
20260831081558 15 0 0.0 0.0 0.00 0.00 0.00 93 1019.4
20260831080105 15 0 0.0 0.0 0.00 0.00 0.00 93 1019.5
20260831074558 15 0 0.0 0.0 0.00 0.00 0.00 93 1019.2
20260831073105 16 0 0.0 0.0 0.00 0.00 0.00 92 1019.2
20260831071558 16 0 0.0 0.0 0.00 0.00 0.00 92 1019.2
20260831070113 16 0 0.0 0.0 0.00 0.00 0.00 92 1019.2
20260831064605 16 0 0.0 0.0 0.00 0.00 0.00 91 1018.9
20260831063100 16 0 0.0 0.0 0.00 0.00 0.00 91 1018.8
20260831061557 16 0 0.0 0.0 0.00 0.00 0.00 90 1018.8
20260831060059 17 0 0.0 0.0 0.00 0.00 0.00 90 1018.9
20260831054604 17 0 0.0 0.0 0.00 0.00 0.00 89 1018.9
20260831053058 17 0 0.0 0.0 0.00 0.00 0.00 88 1019.1
20260831051555 17 0 0.0 0.0 0.00 0.00 0.00 88 1019.1
20260831050103 17 0 0.0 0.0 0.00 0.00 0.00 87 1018.9
20260831044602 18 0 0.0 0.0 0.00 0.00 0.00 85 1018.8
20260831043056 18 0 0.0 6.4 0.00 0.00 0.00 83 1018.9
20260831041605 19 0 0.0 9.7 0.00 0.00 0.00 83 1018.7
20260831034557 19 0 0.0 0.0 0.00 0.00 0.00 83 1018.6
20260831033103 18 0 0.0 0.0 0.00 0.00 0.00 84 1018.6
20260831031558 19 0 0.0 0.0 0.00 0.00 0.00 84 1018.7
20260831030106 19 0 0.0 0.0 0.00 0.00 0.00 83 1018.7
20260831024553 19 0 0.0 0.0 0.00 0.00 0.00 82 1018.7
20260831023058 19 0 0.0 0.0 0.00 0.00 0.00 82 1018.5
20260831021600 20 0 0.0 0.0 0.00 0.00 0.00 80 1018.3
20260831020106 20 0 0.0 0.0 0.00 0.00 0.00 80 1018.4
20260831014617 20 0 0.0 0.0 0.00 0.00 0.00 79 1018.2
20260831013058 20 0 0.0 0.0 0.00 0.00 0.00 79 1018.2
20260831011612 20 0 0.0 4.8 0.00 0.00 0.00 78 1017.9
20260831004559 20 0 0.0 0.0 0.00 0.00 0.00 78 1017.1
20260831003056 20 0 0.0 0.0 0.00 0.00 0.00 79 1017.0
20260831001607 20 0 0.0 3.2 0.00 0.00 0.00 79 1017.1
20260831000103 20 0 0.0 3.2 0.00 0.00 0.00 80 1016.7
20260830234558 20 0 0.0 0.0 0.00 0.00 0.00 79 1016.7
20260830233108 21 0 0.0 0.0 0.00 0.00 0.00 78 1016.6
20260830231609 21 0 0.0 3.2 0.00 0.00 0.00 77 1016.6
20260830230059 21 0 0.0 1.6 0.00 0.00 0.00 78 1016.6
20260830224628 21 0 0.0 0.0 0.00 0.00 0.00 80 1016.7
20260830223105 21 0 0.0 4.8 0.00 0.00 0.00 78 1016.4
20260830221607 21 0 0.0 0.0 0.00 0.00 0.00 80 1016.3
20260830220104 21 0 0.0 11.3 0.00 0.00 0.00 79 1016.3
20260830214606 21 0 0.0 0.0 0.00 0.00 0.00 83 1016.0
20260830213102 21 0 0.0 0.0 0.00 0.00 0.00 85 1016.0
20260830211559 21 0 0.0 0.0 0.00 0.00 0.00 83 1016.1
20260830204601 22 0 0.0 0.0 0.00 0.00 0.00 78 1016.1
20260830203059 22 0 0.0 0.0 0.00 0.00 0.00 75 1016.1
20260830201558 22 0 0.0 0.0 0.00 0.00 0.00 74 1016.2
20260830200105 22 0 0.0 0.0 0.00 0.00 0.00 76 1016.1
20260830194551 22 0 0.0 0.0 0.00 0.00 0.00 75 1016.4
20260830193057 22 0 0.0 0.0 0.00 0.00 0.00 74 1016.6
20260830191556 22 0 0.0 0.0 0.00 0.00 0.00 76 1016.8
20260830190053 22 0 0.0 0.0 0.00 0.00 0.00 75 1017.0
20260830184557 22 0 0.0 0.0 0.00 0.00 0.00 74 1017.1
20260830183057 22 0 0.0 0.0 0.00 0.00 0.00 77 1017.4
20260830181601 22 0 0.0 0.0 0.00 0.00 0.00 77 1017.6
20260830180103 22 0 0.0 0.0 0.00 0.00 0.00 78 1017.6
20260830174558 21 0 0.0 0.0 0.00 0.00 0.00 79 1017.6
20260830173055 21 0 0.0 0.0 0.00 0.00 0.00 78 1017.9
20260830171610 21 0 0.0 0.0 0.00 0.00 0.00 79 1018.2
20260830170101 21 0 0.0 0.0 0.00 0.00 0.00 79 1018.3
20260830164613 20 0 0.0 0.0 0.00 0.00 0.00 79 1018.2
20260830163105 20 0 0.0 0.0 0.00 0.00 0.00 81 1018.4
20260830161613 20 0 0.0 0.0 0.00 0.00 0.00 80 1018.6
20260830154559 19 0 0.0 11.3 0.00 0.00 0.00 79 1019.0
20260830153106 19 0 0.0 1.6 0.00 0.00 0.00 79 1019.1
20260830151607 19 0 0.0 3.2 0.00 0.00 0.00 78 1019.0
20260830150100 19 0 0.0 1.6 0.00 0.00 0.00 80 1019.2
20260830144555 18 0 0.0 17.7 0.00 0.00 0.00 79 1019.5
20260830143113 18 0 0.0 0.0 0.00 0.00 0.00 81 1019.2
20260830141556 19 0 0.0 0.0 0.00 0.00 0.00 78 1018.7
20260830140106 19 0 0.0 14.5 0.00 0.00 0.00 77 1019.3
20260830134559 19 0 0.0 1.6 0.00 0.00 0.00 78 1019.3
20260830133055 18 0 0.0 14.5 0.00 0.00 0.00 79 1019.2
20260830131606 18 258 0.0 9.7 0.00 0.00 0.00 79 1019.2
20260830130108 18 0 0.0 11.3 0.00 0.00 0.00 79 1019.2